Simultaneous Nadir Overpasses (SNOs) Predictions

Prediction of SNOs between NOAA-19 and METOP-C Satellite Orbit:

Table of predicted SNOs for the next 14.0 days since TLE Epoch: 2/4/2023
Index Date (NOAA-19) Time (NOAA-19) Lat,Lon (NOAA-19) SZA (NOAA-19 ) Date (METOP-C) Time (METOP-C) Lat,Lon (METOP-C) SZA (METOP-C ) Distance(km) Time Diff (sec)
1 02/13/2023 01:55:22 -80.93, 5.96 84.35 02/13/2023 01:56:37 -80.92, 5.81 84.35 2.69 75
2 02/13/2023 02:46:25 80.93, 173.17 95.64 02/13/2023 02:47:17 80.92, 173.11 95.64 1.41 52
3 02/13/2023 03:37:21 -80.93, -19.38 84.36 02/13/2023 03:37:58 -80.93, -19.30 84.34 1.30 37
4 02/13/2023 04:28:24 80.93, 147.84 95.63 02/13/2023 04:28:38 80.93, 147.99 95.65 2.71 14
5 02/13/2023 05:19:20 -80.93, -44.71 84.37 02/13/2023 05:19:20 -80.92, -44.78 84.38 1.29 0
6 02/13/2023 06:10:23 80.93, 122.51 95.62 02/13/2023 06:10:00 80.92, 122.51 95.61 0.56 23
7 02/13/2023 07:01:19 -80.93, -70.05 84.38 02/13/2023 07:00:41 -80.93, -69.90 84.38 2.71 38
8 02/13/2023 07:52:22 80.93, 97.17 95.61 02/13/2023 07:51:22 80.92, 97.03 95.57 2.85 60



Historial Predications of SNOs between NOAA-19 and METOP-C
